Lake Hood, AK

5:41 PM AKST on January 18, 2018 (GMT -0900)
Lake Hood

Weather History for PALH - June, 2013

Change the Weather History Date:

Thursday, June 20, 2013

  Actual Average Record
Temperature  
Mean Temperature 61 °F -  
Max Temperature 73 °F 64 °F 82 °F (2007)
Min Temperature 53 °F 48 °F 46 °F (1999)
Degree Days  
Heating Degree Days 4    
Growing Degree Days 11 (Base 50)    
Moisture  
Dew Point 48 °F    
Average Humidity 63    
Maximum Humidity 83    
Minimum Humidity 47    
Precipitation  
Precipitation 0.00 in - - ()
Sea Level Pressure  
Sea Level Pressure 30.00 in    
Wind  
Wind Speed 5 mph (West)    
Max Wind Speed 12 mph    
Max Gust Speed 20 mph    
Visibility 10 miles    
Events      
Averages and records for this station are not official NWS values.
T = Trace of Precipitation, MM = Missing Value Source: NWS Daily Summary

Daily Weather History Graph

Daily Weather History Graph

Search for Another Location

Airport or City:

Trip Planner

Search our weather history database for the weather conditions in past years. The results will help you decide how hot, cold, wet, or windy it might be!

Date:

Astronomy

Jun. 20, 2013 Rise Set
Actual Time 4:20 AM AKDT 11:42 PM AKDT
Civil Twilight 2:33 AM AKDT 1:29 AM AKDT
Nautical Twilight Sun does not rise Sun does not rise
Astronomical Twilight Sun does not rise Sun does not rise
Moon 8:16 PM AKDT (6/20) 2:47 AM AKDT (6/20)
Length of Visible Light 22h 55m
Length of Day
19h 21m
Waxing Gibbous, 90% of the Moon is Illuminated
Jun 20
Waxing Gibbous
Jun 23
Full
Jun 29
Last Quarter
Jul 7
New
Jul 15
First Quarter

Hourly Weather History & Observations

Time (AKDT) Temp. Dew Point Humidity Pressure Visibility Wind Dir Wind Speed Gust Speed Precip Events Conditions
12:53 AM 62.1 °F 45.0 °F 53% 29.99 in 10.0 mi SSW 9.2 mph - N/A   Clear
1:53 AM 57.9 °F 45.0 °F 62% 30.02 in 10.0 mi West 5.8 mph - N/A   Clear
2:53 AM 55.0 °F 45.0 °F 69% 30.02 in 10.0 mi Calm Calm - N/A   Clear
3:53 AM 54.0 °F 46.9 °F 77% 30.01 in 10.0 mi Calm Calm - N/A   Clear
4:53 AM 53.1 °F 48.0 °F 83% 30.00 in 10.0 mi Calm Calm - N/A   Clear
5:53 AM 55.0 °F 46.9 °F 74% 30.00 in 10.0 mi Calm Calm - N/A   Clear
6:53 AM 55.9 °F 48.0 °F 75% 30.00 in 10.0 mi Calm Calm - N/A   Clear
7:53 AM 57.9 °F 48.9 °F 72% 30.01 in 10.0 mi SSW 4.6 mph - N/A   Clear
8:53 AM 61.0 °F 48.9 °F 64% 30.01 in 10.0 mi WSW 3.5 mph - N/A   Clear
9:53 AM 62.1 °F 48.0 °F 60% 30.01 in 10.0 mi Calm Calm - N/A   Clear
10:53 AM 64.0 °F 50.0 °F 60% 29.99 in 10.0 mi WNW 5.8 mph - N/A   Clear
11:53 AM 66.0 °F 50.0 °F 56% 29.99 in 10.0 mi NW 4.6 mph - N/A   Clear
12:53 PM 68.0 °F 48.9 °F 50% 29.98 in 10.0 mi NW 5.8 mph - N/A   Clear
1:53 PM 66.9 °F 48.9 °F 52% 29.98 in 10.0 mi NW 10.4 mph - N/A   Clear
2:53 PM 68.0 °F 48.0 °F 49% 29.98 in 10.0 mi WNW 10.4 mph - N/A   Clear
3:53 PM 69.1 °F 51.1 °F 53% 29.98 in 10.0 mi WNW 9.2 mph - N/A   Clear
4:53 PM 68.0 °F 46.9 °F 47% 29.98 in 10.0 mi West 9.2 mph - N/A   Partly Cloudy
5:53 PM 63.0 °F 45.0 °F 52% 29.99 in 10.0 mi West 11.5 mph 19.6 mph N/A   Partly Cloudy
6:53 PM 63.0 °F 46.0 °F 54% 29.99 in 10.0 mi West 11.5 mph - N/A   Overcast
7:53 PM 62.1 °F 48.0 °F 60% 30.00 in 10.0 mi West 9.2 mph - N/A   Mostly Cloudy
8:53 PM 62.1 °F 48.9 °F 62% 30.00 in 10.0 mi West 9.2 mph - N/A   Scattered Clouds
9:53 PM 57.9 °F 48.9 °F 72% 30.01 in 10.0 mi WNW 6.9 mph - N/A   Clear
10:53 PM 57.0 °F 48.0 °F 72% 30.03 in 10.0 mi West 5.8 mph - N/A   Partly Cloudy
11:53 PM 54.0 °F 46.9 °F 77% 30.04 in 10.0 mi West 3.5 mph - N/A   Clear